Stations météo

réclame
Mon MeteoGroup
Herstmonceux, Grande-Bretagne (3882): Température de l'air & dewpoint: 19.09.2018 08:00:00 - 25.09.2018 08:00:00 (BST)Herstmonceux, Grande-Bretagne (3882): Température de l'air -20cm & Température de l'air -100cm: 19.09.2018 08:00:00 - 25.09.2018 08:00:00 (BST)Herstmonceux, Grande-Bretagne (3882): Vitesse du vent & gusts: 19.09.2018 08:00:00 - 25.09.2018 08:00:00 (BST)Herstmonceux, Grande-Bretagne (3882): Direction du vent: 19.09.2018 08:00:00 - 25.09.2018 08:00:00 (BST)Herstmonceux, Grande-Bretagne (3882): reduced air pressure: 19.09.2018 08:00:00 - 25.09.2018 08:00:00 (BST)Herstmonceux, Grande-Bretagne (3882): visibility: 19.09.2018 08:00:00 - 25.09.2018 08:00:00 (BST)Herstmonceux, Grande-Bretagne (3882): Ensoleillement: 19.09.2018 08:00:00 - 25.09.2018 08:00:00 (BST)Herstmonceux, Grande-Bretagne (3882): Quantités de précipitations: 19.09.2018 08:00:00 - 25.09.2018 08:00:00 (BST)
Date & Time tt [°C] td [°C] tt -20cm [°C] tt -100cm [°C] ff [km/h] ff [knt] fx [km/h] fx [knt] dd ppp [hPa] vv [km] sd [min] rr [mm]
25.09.2018 08:00:00 6,7 3,9 - - 4 2 - - NE 1038,5 50 0 0,0
25.09.2018 07:00:00 6,1 3,5 - - 5 3 - - NNE 1038,5 45 0 0,0
25.09.2018 06:00:00 6,4 3,6 - - 5 3 - - NE 1038,5 50 0 0,0
25.09.2018 05:00:00 6,2 3,8 - - 5 3 - - NE 1038,4 45 0 0,0
25.09.2018 04:00:00 6,1 3,8 - - 5 3 - - NNE 1038,5 50 0 0,0
25.09.2018 03:00:00 6,4 4,5 - - 5 3 - - NNE 1038,7 50 0 0,0
25.09.2018 02:00:00 5,8 4,3 - - 4 2 - - NE 1038,9 50 0 0,0
25.09.2018 01:00:00 6,1 4,5 - - 5 3 - - NE 1039,0 50 - 0,0
25.09.2018 00:00:00 6,2 4,8 - - 4 2 - - NE 1039,2 45 0 0,0
24.09.2018 23:00:00 6,7 4,5 - - 4 2 - - NE 1039,2 40 0 0,0
24.09.2018 22:00:00 6,5 4,4 - - 4 2 - - NE 1039,0 45 0 0,0
24.09.2018 21:00:00 7,2 4,9 - - 4 2 - - NE 1038,8 45 0 0,0
24.09.2018 20:00:00 8,6 4,8 - - 4 2 - - NE 1038,2 50 0 0,0
24.09.2018 19:00:00 10,8 4,6 - - 2 1 - - NE 1037,6 50 18 0,0
24.09.2018 18:00:00 14,3 4,2 - - 4 2 - - NE 1037,1 23 60 0,0
24.09.2018 17:00:00 15,3 4,7 - - 8 4 - - NNE 1037,0 40 60 0,0
24.09.2018 16:00:00 15,3 4,0 - - 9 5 - - N 1037,4 27 60 0,0
24.09.2018 15:00:00 15,1 3,8 - - 9 5 - - N 1037,6 50 60 0,0
24.09.2018 14:00:00 15,1 4,3 - - 8 4 - - N 1037,5 35 60 0,0
24.09.2018 13:00:00 14,3 4,3 - - 11 6 - - NNW 1037,9 24 60 0,0
24.09.2018 12:00:00 13,6 4,0 - - 11 6 - - NNW 1038,0 45 60 0,0
24.09.2018 11:00:00 12,6 5,9 - - 9 5 - - N 1037,7 35 60 0,0
24.09.2018 10:00:00 10,7 7,1 15,2 16,9 5 3 - - N 1037,5 35 54 0,0
24.09.2018 09:00:00 7,8 6,5 - - 4 2 - - W 1037,0 24 12 0,0
24.09.2018 08:00:00 5,9 4,9 - - 8 4 - - N 1036,4 30 0 0,2
24.09.2018 07:00:00 5,0 4,4 - - 8 4 - - NNW 1035,6 35 0 0,0
24.09.2018 06:00:00 5,0 4,3 - - 8 4 - - N 1035,2 23 0 0,0
24.09.2018 05:00:00 4,6 3,7 - - 4 2 - - W 1035,0 16 0 0,0
24.09.2018 04:00:00 6,0 4,8 - - 9 5 - - NNW 1034,3 40 0 0,0
24.09.2018 03:00:00 6,2 5,1 - - 9 5 - - NNW 1033,8 45 0 0,0
24.09.2018 02:00:00 4,6 4,0 - - 5 3 - - WNW 1033,3 27 0 0,0
24.09.2018 01:00:00 4,5 3,5 - - 4 2 - - W 1032,0 20 - 0,0
24.09.2018 00:00:00 6,0 4,4 - - 2 1 - - NW 1031,1 45 0 0,0
23.09.2018 23:00:00 6,4 4,8 - - 5 3 - - NNW 1030,2 45 0 0,0
23.09.2018 22:00:00 7,5 4,2 - - 8 4 - - N 1028,8 40 0 0,0
23.09.2018 21:00:00 8,5 4,2 - - 8 4 - - N 1027,9 50 0 0,0
23.09.2018 20:00:00 7,8 4,3 - - 4 2 - - NW 1026,4 45 0 0,0
23.09.2018 19:00:00 10,4 5,3 - - 5 3 - - NNW 1024,4 45 24 0,0
23.09.2018 18:00:00 12,3 5,2 - - 13 7 - - NNW 1022,8 50 60 0,0
23.09.2018 17:00:00 12,4 5,3 - - 16 9 - - NNW 1021,7 35 54 0,0
23.09.2018 16:00:00 12,1 6,4 - - 21 11 - - NNW 1020,6 35 60 0,0
23.09.2018 15:00:00 10,9 7,5 - - 16 9 - - N 1019,5 40 18 0,0
23.09.2018 14:00:00 8,7 7,6 - - 15 8 - - N 1018,1 18 0 0,8
23.09.2018 13:00:00 9,7 7,5 - - 16 9 54 29 N 1016,6 28 0 0,2
23.09.2018 12:00:00 11,0 9,9 - - 21 11 - - NNE 1014,4 28 0 0,4
23.09.2018 11:00:00 9,8 9,3 - - 21 11 - - NNE 1013,7 15 0 3,4
23.09.2018 10:00:00 9,7 9,3 16,4 17,0 18 10 - - N 1013,6 7 0 4,6
23.09.2018 09:00:00 9,9 9,5 - - 13 7 - - NNE 1011,3 5 0 2,2
23.09.2018 08:00:00 10,3 9,9 - - 11 6 - - NNE 1011,6 7 0 0,6
23.09.2018 07:00:00 11,1 10,6 - - 9 5 - - NNE 1012,3 5 0 0,2
23.09.2018 06:00:00 11,8 11,3 - - 8 4 - - NNE 1012,2 8 0 0,0
23.09.2018 05:00:00 11,8 11,3 - - 5 3 - - ENE 1012,1 14 0 0,0
23.09.2018 04:00:00 11,7 11,3 - - 5 3 - - NE 1012,6 9 0 0,0
23.09.2018 03:00:00 11,7 11,4 - - 5 3 - - NE 1012,6 9 0 0,0
23.09.2018 02:00:00 11,8 11,6 - - 5 3 - - ENE 1012,6 16 0 0,0
23.09.2018 01:00:00 11,8 11,6 - - 8 4 - - ENE 1012,3 35 - 0,2
23.09.2018 00:00:00 11,7 11,5 - - 8 4 - - E 1012,5 9 0 0,0
22.09.2018 23:00:00 11,6 11,4 - - 9 5 - - E 1012,7 9 0 0,2
22.09.2018 22:00:00 11,5 11,3 - - 11 6 - - E 1013,1 6 0 0,6
22.09.2018 21:00:00 11,3 11,2 - - 9 5 - - E 1013,7 4,9 0 1,4
22.09.2018 20:00:00 11,3 11,0 - - 9 5 - - ESE 1014,1 4,0 0 2,0
22.09.2018 19:00:00 11,2 10,9 - - 8 4 - - ESE 1014,8 5 0 1,8
22.09.2018 18:00:00 11,0 10,5 - - 8 4 - - SE 1015,8 5 0 2,4
22.09.2018 17:00:00 11,3 10,6 - - 5 3 - - SE 1016,7 4,4 0 1,6
22.09.2018 16:00:00 11,5 10,3 - - 4 2 - - SE 1018,1 4,4 0 1,8
22.09.2018 15:00:00 11,3 9,6 - - 4 2 - - WSW 1018,9 8 0 1,6
22.09.2018 14:00:00 11,9 8,8 - - 8 4 - - W 1019,6 9 0 0,4
22.09.2018 13:00:00 12,3 9,1 - - 4 2 - - W 1020,2 21 0 0,4
22.09.2018 12:00:00 13,3 9,0 - - 4 2 - - W 1020,6 28 0 0,0
22.09.2018 11:00:00 13,6 8,4 - - 11 6 - - W 1020,4 30 0 0,0
22.09.2018 10:00:00 13,7 9,9 16,7 17,2 8 4 - - W 1020,1 16 0 0,0
22.09.2018 09:00:00 12,1 9,2 - - 5 3 - - W 1020,1 17 0 0,0
22.09.2018 08:00:00 11,4 8,8 - - 8 4 - - W 1019,9 19 0 0,0
22.09.2018 07:00:00 11,2 8,5 - - 8 4 - - W 1019,9 20 0 0,0
22.09.2018 06:00:00 10,6 8,3 - - 4 2 - - W 1019,7 21 0 0,0
22.09.2018 05:00:00 9,8 7,8 - - 5 3 - - WSW 1019,9 25 0 0,0
22.09.2018 04:00:00 10,3 7,7 - - 4 2 - - WNW 1020,0 26 0 0,0
22.09.2018 03:00:00 10,7 7,6 - - 5 3 - - W 1019,8 26 0 0,0
22.09.2018 02:00:00 10,7 7,3 - - 8 4 - - W 1020,3 25 0 0,0
22.09.2018 01:00:00 11,0 6,8 - - 5 3 - - W 1019,6 30 - 0,0
22.09.2018 00:00:00 11,8 6,9 - - 9 5 - - W 1019,7 24 0 0,0
21.09.2018 23:00:00 11,6 6,9 - - 8 4 - - W 1019,0 40 0 0,0
21.09.2018 22:00:00 12,0 6,6 - - 8 4 - - W 1018,4 30 0 0,0
21.09.2018 21:00:00 12,3 6,7 - - 11 6 - - W 1017,6 29 0 0,0
21.09.2018 20:00:00 13,5 6,0 - - 16 9 - - W 1016,2 35 0 0,0
21.09.2018 19:00:00 14,0 6,3 - - 13 7 - - W 1015,0 28 24 0,0
21.09.2018 18:00:00 15,0 5,8 - - 15 8 - - W 1013,7 35 48 0,0
21.09.2018 17:00:00 16,1 6,8 - - 16 9 52 28 W 1013,3 24 30 0,0
21.09.2018 16:00:00 16,1 7,4 - - 24 13 54 29 W 1012,6 20 42 0,0
21.09.2018 15:00:00 15,5 7,3 - - 21 11 54 29 W 1012,3 26 36 0,0
21.09.2018 14:00:00 16,3 6,6 - - 22 12 48 26 W 1011,7 40 36 0,0
21.09.2018 13:00:00 15,3 5,3 - - 22 12 46 25 W 1011,4 24 54 0,0
21.09.2018 12:00:00 14,6 7,2 - - 15 8 - - WNW 1011,0 40 36 0,0
21.09.2018 11:00:00 13,6 7,2 - - 16 9 - - W 1010,4 28 54 0,0
21.09.2018 10:00:00 12,6 6,6 17,7 17,2 16 9 - - W 1010,0 30 60 0,0
21.09.2018 09:00:00 11,5 6,2 - - 16 9 - - W 1008,5 45 18 0,0
21.09.2018 08:00:00 11,1 7,3 - - 16 9 - - W 1006,9 50 0 0,0
21.09.2018 07:00:00 12,0 8,5 - - 15 8 - - W 1005,2 50 0 0,0
21.09.2018 06:00:00 12,5 8,8 - - 13 7 - - W 1003,6 50 0 0,0
21.09.2018 05:00:00 13,3 9,5 - - 16 9 48 26 W 1002,3 45 0 0,0
21.09.2018 04:00:00 14,8 13,5 - - 18 10 57 31 W 1000,9 13 0 2,2
21.09.2018 03:00:00 16,9 16,4 - - 29 16 65 35 SW 999,1 3,3 0 3,2
21.09.2018 02:00:00 17,8 16,0 - - 28 15 57 31 SW 1000,4 12 0 0,2
21.09.2018 01:00:00 18,4 15,4 - - 28 15 55 30 SW 1002,0 13 - 0,0
21.09.2018 00:00:00 18,7 14,8 - - 29 16 57 31 SW 1003,6 17 0 0,0
20.09.2018 23:00:00 19,0 14,8 - - 24 13 54 29 SW 1004,5 17 0 0,0
20.09.2018 22:00:00 19,2 14,4 - - 24 13 - - SW 1005,8 18 0 0,0
20.09.2018 21:00:00 19,4 14,3 - - 22 12 52 28 SW 1006,9 16 0 0,0
20.09.2018 20:00:00 19,5 14,5 - - 21 11 - - SW 1007,5 20 0 0,0
20.09.2018 19:00:00 19,4 15,2 - - 21 11 - - SW 1008,6 16 0 0,0
20.09.2018 18:00:00 19,4 15,5 - - 21 11 - - SW 1009,7 15 12 0,0
20.09.2018 17:00:00 20,6 15,5 - - 21 11 - - SW 1010,4 14 24 0,0
20.09.2018 16:00:00 19,3 15,8 - - 18 10 - - SW 1011,5 16 0 0,0
20.09.2018 15:00:00 19,1 15,7 - - 21 11 - - SW 1012,4 15 0 0,0
20.09.2018 14:00:00 18,9 15,6 - - 21 11 46 25 SW 1012,8 14 0 0,0
20.09.2018 13:00:00 18,9 15,7 - - 22 12 50 27 SW 1013,2 12 0 0,0
20.09.2018 12:00:00 19,0 15,5 - - 22 12 50 27 SW 1013,9 14 0 0,0
20.09.2018 11:00:00 18,3 14,7 - - 22 12 48 26 SW 1014,2 14 0 0,0
20.09.2018 10:00:00 18,5 14,9 17,7 17,2 18 10 - - WSW 1014,3 13 0 0,0
20.09.2018 09:00:00 17,8 14,7 - - 16 9 - - SW 1014,3 14 0 0,0
20.09.2018 08:00:00 17,5 14,1 - - 16 9 - - WSW 1014,4 12 0 0,0
20.09.2018 07:00:00 17,4 14,5 - - 16 9 - - WSW 1014,4 13 0 0,0
20.09.2018 06:00:00 17,2 14,3 - - 15 8 - - WSW 1014,5 12 0 0,0
20.09.2018 05:00:00 17,4 15,5 - - 18 10 - - SW 1014,4 12 0 0,0
20.09.2018 04:00:00 17,2 15,6 - - 16 9 - - SW 1014,9 10 0 0,0
20.09.2018 03:00:00 17,2 15,4 - - 13 7 - - SW 1015,3 10 0 0,0
20.09.2018 02:00:00 16,4 15,2 - - 9 5 - - SW 1015,6 9 0 0,0
20.09.2018 01:00:00 16,5 15,7 - - 11 6 - - SW 1015,6 7 - 0,0
20.09.2018 00:00:00 16,8 15,7 - - 11 6 - - SW 1015,8 8 0 0,0
19.09.2018 23:00:00 16,7 15,4 - - 11 6 - - SW 1016,0 8 0 0,0
19.09.2018 22:00:00 17,6 15,8 - - 13 7 - - WSW 1016,3 9 0 0,0
19.09.2018 21:00:00 17,6 16,1 - - 9 5 - - W 1016,6 8 0 0,0
19.09.2018 20:00:00 17,7 15,6 - - 13 7 - - WSW 1016,0 10 0 0,0
19.09.2018 19:00:00 18,2 15,5 - - 16 9 - - WSW 1015,6 11 0 0,0
19.09.2018 18:00:00 19,1 16,0 - - 21 11 50 27 WSW 1015,4 12 6 0,0
19.09.2018 17:00:00 19,9 15,9 - - 22 12 59 32 WSW 1014,9 17 24 0,0
19.09.2018 16:00:00 19,5 15,9 - - 26 14 55 30 SW 1015,1 14 0 0,0
19.09.2018 15:00:00 19,4 16,0 - - 21 11 50 27 SW 1015,1 13 0 0,0
19.09.2018 14:00:00 19,6 15,9 - - 28 15 61 33 SW 1015,0 14 0 0,0
19.09.2018 13:00:00 20,1 16,3 - - 24 13 59 32 SW 1014,6 14 36 0,0
19.09.2018 12:00:00 19,7 16,2 - - 28 15 52 28 SW 1014,6 12 12 0,0
19.09.2018 11:00:00 18,8 15,9 - - 26 14 50 27 SW 1014,5 13 0 0,0
19.09.2018 10:00:00 18,3 16,0 17,7 17,2 22 12 - - SW 1014,5 10 0 0,0
19.09.2018 09:00:00 18,0 15,9 - - 18 10 - - SW 1014,3 10 0 0,0
19.09.2018 08:00:00 17,7 15,9 - - 16 9 - - SW 1013,9 9 0 0,0

tt = Température de l'air
td = dewpoint
tt -20cm = Température de l'air -20cm
tt -100cm = Température de l'air -100cm
ff = Vitesse du vent
fx = gusts
dd = Direction du vent
ppp = reduced air pressure
vv = visibility
sd = Ensoleillement
rr = Quantités de précipitations

stations d'obs. à proximité